Starlink 11535

operational
NORAD ID: 62595 Int'l Des: 2025-008 Owner: SPXS Country: US Constellation: starlink
LEOCIRCULAR

Starlink 11535について

説明を読み込み中...

リアルタイム位置

3D地球を読み込み中...

次回通過

高度履歴

Altitude vs Time

uPlot chart will show altitude changes over time

軌道要素

1 62595U 25008J 26033.17889104 .00185595 00000-0 14151-2 0 9991
2 62595 42.9991 339.8226 0001858 285.0890 74.9772 15.70886245 61559
Epoch: Feb 2, 2026 • Age: 24 hours

現在のステータス

高度 366.0 km
速度 7.69 km/s
衛星直下点 -39.84°S, 71.37°E
打ち上げ日 Jan 13, 2025
運用期間 1 years
タイプ internet

技術仕様

分類 Payload
質量 960.00 kg
乾燥質量 910.00 kg
総質量 960.00 kg
長さ 0.30 m
直径 4.10 m
スパン 29.00 m
形状 Box + pan
製造者 SPXS
バスタイプ Starlink V2MD
フェーズステータス In Orbit
所有者/国 SPXS/US

大規模コンステレーション

Loading constellations...